#timestamp,LO_Frequency,Hit,StdDev 
1529481615.4,286046999.1,N
1529481635.3,286046998.3,N
1529481655.1,286047000.3,N
1529481675.9,286046999.8,N
1529481695.7,286047000.9,N
1529481715.5,286047000.6,N
1529481735.4,286047000.4,N
1529481755.2,286047000.3,N
1529481775.0,286047000.7,N
1529481776.0,286047000.7,N
1529481795.8,286046998.7,N
1529481815.6,286046998.2,N
1529481835.5,286046998.5,N
1529481855.3,286047000.4,N
1529481875.1,286047000.5,N
1529481895.9,286046999.9,N
1529481915.7,286047000.7,N
1529481935.5,286047000.7,N
1529481955.4,286046998.9,N
1529481975.2,286047000.3,N
1529481995.1,286046999.7,N
1529481996.0,286046999.7,N
1529482015.8,286047002.1,N
1529482035.6,286047000.5,N
1529482055.5,286046998.5,N
1529482075.3,286046998.1,N
1529482095.2,286047000.6,N
1529482115.9,286046998.1,N
1529482135.7,286047001.0,N
1529482155.6,286047001.0,N
1529482175.4,286047000.3,N
1529482195.2,286047000.5,N
1529482215.1,286047000.1,N
1529482216.0,286047000.1,N
1529482235.8,286047002.2,N
1529482255.7,286047001.0,N
1529482275.5,286047000.8,N
1529482295.3,286047000.2,N
1529482315.2,286047000.0,N
1529482335.0,286047001.0,N
1529482335.9,286047001.0,N
1529482355.8,286047000.0,N
1529482375.6,286047001.1,N
1529482395.4,286046998.5,N
1529482415.3,286046998.4,N
1529482465.1,286046998.6,E
1529482475.1,286047000.7,N
1529482476.0,286047000.7,P
1529482495.8,286047000.7,P
1529482515.6,286047000.0,Y
1529482535.5,286047000.3,P
1529482555.3,286047001.2,P
1529482575.1,286046998.7,P
1529482595.9,286046999.6,N
1529482615.7,286047001.1,N
1529482635.6,286047000.7,N
1529482655.4,286046998.3,N
1529482675.2,286046998.8,N
1529482695.1,286047000.8,N
1529482696.0,286047000.8,N
1529482715.8,286047000.3,N
1529482735.7,286047000.5,N
1529482755.5,286046999.9,N
1529482775.3,286047000.6,N
1529482795.2,286047000.3,N
1529482815.9,286047001.1,N
1529482835.7,286047000.5,N
1529482855.6,286047002.6,Y
1529482875.4,286047002.6,P
1529482895.3,286047002.4,N
1529482915.1,286047002.7,N
1529482916.0,286047002.7,N
1529482935.8,286047002.1,N
1529482955.7,286047004.1,Y
1529482975.5,286047000.4,P
1529482995.3,286047000.9,N
1529483015.2,286047000.0,N
1529483035.0,286047000.0,N
1529483035.9,286047000.0,N
1529483055.8,286046999.8,N
1529483075.6,286047002.6,Y
1529483095.4,286046999.8,P
1529483115.3,286047002.1,P
1529483135.1,286047000.4,N
1529483155.9,286047002.7,Y
1529483175.7,286047000.5,P
1529483195.5,286047001.1,P
1529483215.4,286046998.1,P
1529483235.2,286046998.1,N
1529483255.1,286046999.0,N
1529483256.0,286046999.0,N
1529483275.8,286046999.4,N
1529483295.6,286046998.8,N
1529483315.5,286046998.8,N
1529483335.3,286046999.5,N
1529483355.1,286046996.8,Y
1529483375.9,286046996.8,P
1529483395.7,286046997.0,N
1529483415.6,286046999.0,N
1529483435.4,286046999.4,N
1529483455.2,286046998.9,N
1529483475.1,286046997.0,N
1529483495.6,286046997.9,N
1529483515.4,286046998.0,N
1529483535.3,286046995.6,Y
1529483555.1,286046994.9,P
1529483575.8,286046996.7,N
1529483595.7,286046998.3,N
1529483615.5,286047000.1,N
1529483635.4,286047000.2,N
1529483655.2,286047000.6,N
1529483675.0,286046998.6,N
1529483675.9,286046998.6,N
1529483695.8,286046999.4,N
1529483715.6,286047001.1,N
1529483735.4,286046997.1,N
1529483755.3,286046999.6,N
1529483775.1,286046999.5,N
1529483795.9,286046997.1,N
1529483815.7,286046999.2,N
1529483835.5,286046998.4,N
1529483855.4,286047001.0,N
1529483875.2,286046998.1,N
1529483895.0,286047000.5,N
1529483896.0,286047000.5,N
1529483915.8,286047002.4,N
1529483935.6,286047000.9,N
1529483955.5,286047000.5,N
1529483975.3,286047001.0,N
1529483995.1,286046999.9,N
1529484015.9,286047000.4,N
1529484035.7,286047002.7,N
1529484055.6,286047002.7,N
1529484075.4,286047000.2,N
1529484095.2,286047002.6,N
1529484115.1,286047000.5,N
1529484116.0,286047000.5,N
1529484135.8,286047000.5,N
1529484155.7,286047000.1,N
1529484175.5,286047001.5,N
1529484195.3,286047003.8,N
1529484215.2,286047004.2,N
1529484235.0,286047003.1,N
1529484235.9,286047003.1,N
1529484255.8,286047005.5,Y
1529484275.6,286047003.8,P
1529484295.4,286047003.9,N
1529484315.3,286047001.8,N
1529484335.1,286047001.8,N
1529484355.8,286047001.4,N
1529484375.7,286047002.1,N
1529484395.5,286047001.4,N
1529484415.4,286047002.6,N
1529484435.2,286047004.4,Y
1529484455.0,286047000.4,P
1529484455.9,286047000.4,N
1529484475.8,286047000.1,N
1529484495.6,286047000.4,N
1529484515.5,286047000.5,N
1529484535.4,286046998.3,N
1529484555.2,286046998.9,N
1529484575.1,286046998.9,N
1529484576.0,286046998.9,N
1529484595.8,286046998.4,N
1529484615.6,286046998.6,N
1529484635.5,286046999.6,N
1529484655.3,286046997.2,N
1529484675.2,286046996.7,N
1529484695.9,286046996.8,N
1529484715.7,286046996.5,N
1529484735.6,286046997.0,N
1529484755.4,286046997.0,N
1529484775.2,286046999.3,N
1529484795.1,286046999.3,N
1529484796.0,286046999.3,N
1529484815.8,286046996.5,N
1529484835.7,286046996.8,N
1529484855.5,286046999.5,N
1529484875.3,286046999.6,N
1529484895.2,286046997.2,N
1529484915.0,286046996.5,N
1529484915.9,286046996.5,N
1529484935.8,286046996.8,N
1529484955.6,286046997.8,N
1529484975.4,286046995.0,Y
1529484995.3,286046996.9,P
1529485015.1,286046996.9,P
1529485035.8,286046999.5,N
1529485055.7,286046997.0,N
1529485075.5,286046999.6,N
1529485095.4,286046999.5,N
1529485115.2,286046998.3,N
1529485135.0,286046999.0,N
1529485135.9,286046999.0,N
1529485155.8,286046998.4,N
1529485175.6,286046998.4,N
1529485195.5,286046998.7,N
